This demonstration page uses our WeatherBlox Daily Observations layout. Learn more.

Left ArrowRight Arrow

Hourly Observations for July 25, 2022

Temp ( °F °C ) Dew Point ( °F °C ) Humidity (%) Winds ( mph kmh ) Pressure ( in mb ) Visibility ( mi km ) Precip ( " mm )
12:15 am 00:15 Clear 69 20.7 63 17 79 79 E 8 13 29.99 1016 10 16 0.00 0.00
12:35 am 00:35 Clear 68 20.2 63 17.1 82 82 ENE 6 9 29.99 1015 10 16 0.00 0.00
12:55 am 00:55 Clear 67 19.7 63 17 85 85 E 6 9 29.99 1016 10 16 0.00 0.00
1:15 am 01:15 Clear 66 19 64 17.5 91 91 ESE 5 7 30.01 1016 10 16 0.00 0.00
1:35 am 01:35 Clear 66 19 64 17.5 91 91 SE 3 6 30.02 1016 10 16 0.00 0.00
1:55 am 01:55 Mostly Cloudy 66 19 64 17.7 92 92 ESE 5 7 30.01 1016 10 16 0.00 0.00
2:15 am 02:15 Mostly Cloudy 67 19.2 64 17.9 92 92 E 6 9 29.99 1016 10 16 0.00 0.00
2:35 am 02:35 Partly Cloudy 67 19.5 65 18.2 92 92 ESE 7 11 29.98 1015 10 16 0.00 0.00
2:55 am 02:55 Mostly Cloudy with Rain 67 19.6 65 18.6 94 94 ESE 5 7 29.99 1016 10 16 0.00 0.00
3:15 am 03:15 Cloudy with Rain 67 19.5 65 18.5 94 94 S 3 6 30.01 1016 7 11 0.01 0.25
3:35 am 03:35 Cloudy with Rain 66 19.1 65 18.2 95 95 S 6 9 30.01 1016 5 8 0.06 1.52
3:55 am 03:55 Cloudy with Light Rain 66 18.8 64 18 95 95 S 7 11 30.02 1016 7 11 0.09 2.29
4:15 am 04:15 Cloudy with Heavy Rain 65 18.6 64 17.6 94 94 SE 8 13 30.02 1017 5 8 0.05 1.27
4:35 am 04:35 Cloudy with Light Rain 65 18.3 64 18 98 98 SE 7 11 30.02 1017 5 8 0.19 4.83
4:55 am 04:55 Cloudy with Light Rain 65 18.5 64 18 97 97 SE 7 11 30.01 1016 7 11 0.20 5.08
5:15 am 05:15 Cloudy with Light Rain 65 18.3 64 17.8 97 97 ESE 6 9 30.01 1016 10 16 0.00 0.00
5:35 am 05:35 Cloudy with Drizzle 65 18.3 64 17.8 97 97 SE 8 13 30.01 1016 10 16 0.00 0.00
5:55 am 05:55 Cloudy with Drizzle 64 18 63 17.3 96 96 ESE 9 15 30.01 1016 10 16 0.00 0.00
6:15 am 06:15 Cloudy with Drizzle 64 17.8 63 17.3 97 97 ESE 12 19 30.01 1016 10 16 0.01 0.25
6:35 am 06:35 Cloudy with Rain 64 17.8 63 17.2 96 96 SE 10 17 30.02 1016 10 16 0.01 0.25
6:55 am 06:55 Cloudy with Rain 64 17.7 63 17.2 97 97 ESE 13 20 30.02 1016 5 8 0.05 1.27
7:15 am 07:15 Cloudy with Rain 63 17.3 62 16.8 97 97 E 12 19 30.02 1017 5 8 0.05 1.27
7:35 am 07:35 Cloudy with Light Rain 62 16.5 61 16 97 97 E 13 20 30.03 1017 5 8 0.10 2.54
7:55 am 07:55 Cloudy with Rain 61 16.1 60 15.6 97 97 E 9 15 30.03 1017 7 11 0.13 3.30
8:15 am 08:15 Cloudy with Rain 61 16.1 60 15.6 97 97 E 8 13 30.03 1017 5 8 0.06 1.52
8:35 am 08:35 Cloudy with Heavy Rain 61 16.1 60 15.7 97 97 E 8 13 30.03 1017 3 5 0.16 4.06
8:55 am 08:55 Cloudy with Rain 61 16.1 60 15.7 97 97 E 10 17 30.03 1017 3 5 0.28 7.11
9:15 am 09:15 Cloudy with Rain 60 15.7 59 15.2 97 97 E 8 13 30.04 1017 3 5 0.09 2.29
9:35 am 09:35 Cloudy with Rain 60 15.5 59 15.1 97 97 E 8 13 30.04 1017 3 5 0.20 5.08
9:55 am 09:55 Cloudy with Rain 60 15.5 59 15.1 97 97 E 6 9 30.04 1017 5 8 0.27 6.86
10:15 am 10:15 Cloudy with Light Rain 60 15.6 59 15.2 97 97 E 9 15 30.04 1017 5 8 0.04 1.02
10:35 am 10:35 Cloudy with Rain 60 15.6 59 15.2 97 97 E 8 13 30.04 1017 4 6 0.06 1.52
10:55 am 10:55 Cloudy with Drizzle 60 15.8 60 15.5 98 98 E 8 13 30.04 1017 5 8 0.07 1.78
11:15 am 11:15 Cloudy with Drizzle 61 16 60 15.5 97 97 E 7 11 30.04 1017 7 11 0.00 0.00
11:35 am 11:35 Cloudy with Light Rain 61 16.1 60 15.7 97 97 E 7 11 30.04 1017 7 11 0.00 0.00
11:55 am 11:55 Cloudy with Drizzle 61 16.2 60 15.7 97 97 E 8 13 30.04 1017 3 4 0.01 0.25
12:15 pm 12:15 Cloudy with Drizzle 62 16.5 61 16 97 97 E 7 11 30.04 1017 3 5 0.01 0.25
12:35 pm 12:35 Cloudy with Drizzle 62 16.4 61 16 98 98 E 7 11 30.04 1017 4 6 0.01 0.25
12:55 pm 12:55 Cloudy 62 16.5 61 16.1 98 98 E 7 11 30.04 1017 10 16 0.01 0.25
1:15 pm 13:15 Cloudy with Mist and Fog 62 16.5 61 16.1 98 98 E 7 11 30.04 1017 2 2 0.00 0.00
1:35 pm 13:35 Cloudy with Mist and Fog 62 16.5 61 16.1 98 98 ENE 6 9 30.04 1017 1 2 0.00 0.00
1:55 pm 13:55 Cloudy with Mist and Fog 62 16.5 61 16.2 98 98 E 7 11 30.03 1017 1 2 0.00 0.00
2:15 pm 14:15 Cloudy with Mist and Fog 62 16.6 61 16.3 98 98 E 8 13 30.02 1016 1 2 0.01 0.25
2:35 pm 14:35 Cloudy with Mist and Fog 63 17 62 16.6 98 98 E 8 13 30.01 1016 2 3 0.01 0.25
2:55 pm 14:55 Cloudy with Mist and Fog 63 17 62 16.7 98 98 E 7 11 30.01 1016 3 5 0.01 0.25
3:15 pm 15:15 Cloudy 63 17.2 63 17 99 99 E 8 13 30.01 1016 7 11 0.00 0.00
3:35 pm 15:35 Cloudy 64 17.6 63 17 96 96 E 8 13 30.01 1016 10 16 0.00 0.00
3:55 pm 15:55 Cloudy 65 18.1 63 17.4 96 96 E 8 13 29.99 1016 10 16 0.00 0.00
4:15 pm 16:15 Cloudy with Mist and Fog 65 18.2 63 17.4 95 95 E 8 13 29.98 1015 5 8 0.00 0.00
4:35 pm 16:35 Cloudy with Mist and Fog 65 18.3 64 17.5 95 95 E 10 17 29.97 1015 4 6 0.00 0.00
4:55 pm 16:55 Cloudy 66 18.8 64 17.8 94 94 E 9 15 29.97 1015 10 16 0.00 0.00
5:15 pm 17:15 Cloudy 65 18.6 64 17.7 95 95 E 9 15 29.96 1015 7 11 0.00 0.00
5:35 pm 17:35 Cloudy 66 18.7 64 17.8 95 95 E 9 15 29.95 1014 7 11 0.00 0.00
5:55 pm 17:55 Cloudy 65 18.6 64 17.9 96 96 E 8 13 29.95 1014 7 11 0.00 0.00
6:15 pm 18:15 Cloudy 65 18.6 64 17.8 95 95 ESE 8 13 29.95 1014 7 11 0.00 0.00
6:35 pm 18:35 Cloudy with Mist and Fog 65 18.5 64 17.9 96 96 ESE 7 11 29.94 1014 3 5 0.00 0.00
6:55 pm 18:55 Cloudy with Mist and Fog 65 18.2 64 17.7 97 97 E 9 15 29.94 1014 2 3 0.00 0.00
7:15 pm 19:15 Cloudy with Mist and Fog 65 18.2 64 17.8 98 98 ESE 9 15 29.93 1014 2 3 0.00 0.00
7:35 pm 19:35 Cloudy with Mist and Fog 65 18.2 64 17.8 98 98 ESE 9 15 29.93 1014 2 3 0.00 0.00
7:55 pm 19:55 Cloudy with Mist and Fog 65 18.2 64 18 99 99 E 9 15 29.94 1014 2 3 0.00 0.00
8:15 pm 20:15 Cloudy with Mist and Fog 65 18.1 64 17.8 98 98 ESE 10 17 29.93 1014 2 3 0.00 0.00
8:35 pm 20:35 Cloudy with Mist and Fog 65 18.1 64 17.8 98 98 E 12 19 29.93 1014 3 4 0.00 0.00
8:55 pm 20:55 Cloudy with Mist and Fog 65 18.2 64 17.9 98 98 ESE 9 15 29.93 1014 5 8 0.00 0.00
9:15 pm 21:15 Cloudy 65 18.1 64 17.8 98 98 E 10 17 29.93 1014 7 11 0.00 0.00
9:35 pm 21:35 Cloudy 65 18.1 64 17.8 98 98 ESE 8 13 29.93 1014 10 16 0.00 0.00
9:55 pm 21:55 Cloudy 65 18.2 64 17.8 98 98 ESE 9 15 29.93 1014 10 16 0.00 0.00
10:15 pm 22:15 Cloudy with Mist and Fog 64 18 64 17.8 99 99 ESE 12 19 29.93 1014 2 3 0.00 0.00
10:35 pm 22:35 Cloudy with Mist and Fog 64 18 64 17.8 99 99 ESE 9 15 29.93 1014 3 5 0.00 0.00
10:55 pm 22:55 Cloudy with Mist and Fog 64 18 64 17.7 98 98 ESE 9 15 29.94 1014 4 6 0.00 0.00
11:15 pm 23:15 Cloudy with Mist and Fog 64 18 64 17.8 99 99 ESE 9 15 29.94 1014 2 3 0.00 0.00
11:35 pm 23:35 Cloudy with Mist and Fog 64 18 64 17.8 99 99 ESE 5 7 29.95 1014 1 1 0.00 0.00
11:55 pm 23:55 Cloudy with Mist and Fog 64 17.9 64 17.6 98 98 SE 7 11 29.94 1014 1 1 0.00 0.00

Powered by AerisWeather